Time,TemperatureF,DewpointF,PressureIn,WindDirection,WindDirectionDegrees,WindSpeedMPH,WindSpeedGustMPH,Humidity,HourlyPrecipIn,Conditions,Clouds,dailyrainin,SolarRadiationWatts/m^2,SoftwareType,DateUTC
2013-11-04 00:21:00,50.0,48.0,29.82,NNE,14,2.0,6.0,93,0.00,,,0.00,0.000000,,2013-11-04 08:21:00,
2013-11-04 00:32:00,50.0,48.0,29.82,NNE,14,2.0,6.0,93,0.00,,,0.00,0.000000,,2013-11-04 08:32:00,
2013-11-04 00:42:00,50.0,48.0,29.82,NNE,14,2.0,6.0,93,0.00,,,0.00,0.000000,,2013-11-04 08:42:00,
2013-11-04 00:52:00,50.0,48.0,29.82,NNE,14,2.0,6.0,93,0.00,,,0.00,0.000000,,2013-11-04 08:52:00,
2013-11-04 01:21:00,53.0,50.0,29.79,NNW,342,1.0,5.0,91,0.00,,,0.00,0.000000,,2013-11-04 09:21:00,
2013-11-04 01:33:00,53.0,50.0,29.79,NNW,342,1.0,5.0,91,0.00,,,0.00,0.000000,,2013-11-04 09:33:00,
2013-11-04 01:43:00,53.0,50.0,29.79,NNW,342,1.0,5.0,91,0.00,,,0.00,0.000000,,2013-11-04 09:43:00,
2013-11-04 01:53:00,53.0,50.0,29.79,NNW,342,1.0,5.0,91,0.00,,,0.00,0.000000,,2013-11-04 09:53:00,
2013-11-04 02:23:00,54.0,51.0,29.79,NW,321,1.0,4.0,88,0.00,,,0.00,0.000000,,2013-11-04 10:23:00,
2013-11-04 02:33:00,54.0,51.0,29.79,NW,321,1.0,4.0,88,0.00,,,0.00,0.000000,,2013-11-04 10:33:00,
2013-11-04 02:42:00,54.0,51.0,29.79,NW,321,1.0,4.0,88,0.00,,,0.00,0.000000,,2013-11-04 10:42:00,
2013-11-04 02:52:00,54.0,51.0,29.79,NW,321,1.0,4.0,88,0.00,,,0.00,0.000000,,2013-11-04 10:52:00,
2013-11-04 03:22:00,54.0,51.0,29.79,NE,51,2.0,5.0,89,0.00,,,0.00,0.000000,,2013-11-04 11:22:00,
2013-11-04 03:32:00,54.0,51.0,29.79,NE,51,2.0,5.0,89,0.00,,,0.00,0.000000,,2013-11-04 11:32:00,
2013-11-04 03:42:00,54.0,51.0,29.79,NE,51,2.0,5.0,89,0.00,,,0.00,0.000000,,2013-11-04 11:42:00,
2013-11-04 03:52:00,54.0,51.0,29.79,NE,51,2.0,5.0,89,0.00,,,0.00,0.000000,,2013-11-04 11:52:00,
2013-11-04 04:22:00,54.0,51.0,29.79,NNW,329,2.0,7.0,89,0.00,,,0.00,0.000000,,2013-11-04 12:22:00,
2013-11-04 04:32:00,54.0,51.0,29.79,NNW,329,2.0,7.0,89,0.00,,,0.00,0.000000,,2013-11-04 12:32:00,
2013-11-04 04:42:00,54.0,51.0,29.79,NNW,329,2.0,7.0,89,0.00,,,0.00,0.000000,,2013-11-04 12:42:00,
2013-11-04 04:52:00,54.0,51.0,29.79,NNW,329,2.0,7.0,89,0.00,,,0.00,0.000000,,2013-11-04 12:52:00,
2013-11-04 05:21:00,54.0,51.0,29.78,NE,45,1.0,7.0,91,0.00,,,0.00,0.000000,,2013-11-04 13:21:00,
2013-11-04 05:32:00,54.0,51.0,29.78,NE,45,1.0,7.0,91,0.00,,,0.00,0.000000,,2013-11-04 13:32:00,
2013-11-04 05:42:00,54.0,51.0,29.78,NE,45,1.0,7.0,91,0.00,,,0.00,0.000000,,2013-11-04 13:42:00,
2013-11-04 05:52:00,54.0,51.0,29.78,NE,45,1.0,7.0,91,0.00,,,0.00,0.000000,,2013-11-04 13:52:00,
2013-11-04 06:22:00,53.0,51.0,29.81,WSW,244,3.0,6.0,93,0.00,,,0.00,0.000000,,2013-11-04 14:22:00,
2013-11-04 06:32:00,53.0,51.0,29.81,WSW,244,3.0,6.0,93,0.00,,,0.00,0.000000,,2013-11-04 14:32:00,
2013-11-04 06:42:00,53.0,51.0,29.81,WSW,244,3.0,6.0,93,0.00,,,0.00,0.000000,,2013-11-04 14:42:00,
2013-11-04 06:52:00,53.0,51.0,29.81,WSW,244,3.0,6.0,93,0.00,,,0.00,0.000000,,2013-11-04 14:52:00,
2013-11-04 07:21:00,52.0,50.0,29.80,NNE,23,2.0,7.0,94,0.00,,,0.00,10.000000,,2013-11-04 15:21:00,
2013-11-04 07:32:00,52.0,50.0,29.80,NNE,23,2.0,7.0,94,0.00,,,0.00,10.000000,,2013-11-04 15:32:00,
2013-11-04 07:42:00,52.0,50.0,29.80,NNE,23,2.0,7.0,94,0.00,,,0.00,10.000000,,2013-11-04 15:42:00,
2013-11-04 07:52:00,52.0,50.0,29.80,NNE,23,2.0,7.0,94,0.00,,,0.00,10.000000,,2013-11-04 15:52:00,
2013-11-04 08:23:00,56.0,54.0,29.84,ENE,64,1.0,4.0,94,0.00,,,0.00,80.000000,,2013-11-04 16:23:00,
2013-11-04 08:33:00,56.0,54.0,29.84,ENE,64,1.0,4.0,94,0.00,,,0.00,80.000000,,2013-11-04 16:33:00,
2013-11-04 08:43:00,56.0,54.0,29.84,ENE,64,1.0,4.0,94,0.00,,,0.00,80.000000,,2013-11-04 16:43:00,
2013-11-04 08:53:00,56.0,54.0,29.84,ENE,64,1.0,4.0,94,0.00,,,0.00,80.000000,,2013-11-04 16:53:00,
2013-11-04 09:22:00,61.0,52.0,29.85,SSW,211,2.0,6.0,73,0.00,,,0.00,275.000000,,2013-11-04 17:22:00,
2013-11-04 09:33:00,61.0,52.0,29.85,SSW,211,2.0,6.0,73,0.00,,,0.00,275.000000,,2013-11-04 17:33:00,
2013-11-04 09:42:00,61.0,52.0,29.85,SSW,211,2.0,6.0,73,0.00,,,0.00,275.000000,,2013-11-04 17:42:00,
2013-11-04 09:53:00,61.0,52.0,29.85,SSW,211,2.0,6.0,73,0.00,,,0.00,275.000000,,2013-11-04 17:53:00,
2013-11-04 10:23:00,67.0,54.0,29.85,ENE,76,2.0,10.0,62,0.00,,,0.00,310.000000,,2013-11-04 18:23:00,
2013-11-04 10:32:00,67.0,54.0,29.85,ENE,76,2.0,10.0,62,0.00,,,0.00,310.000000,,2013-11-04 18:32:00,
2013-11-04 10:42:00,67.0,54.0,29.85,ENE,76,2.0,10.0,62,0.00,,,0.00,310.000000,,2013-11-04 18:42:00,
2013-11-04 10:52:00,67.0,54.0,29.85,ENE,76,2.0,10.0,62,0.00,,,0.00,310.000000,,2013-11-04 18:52:00,
2013-11-04 11:22:00,69.0,50.0,29.84,South,181,10.0,16.0,51,0.00,,,0.00,680.000000,,2013-11-04 19:22:00,
2013-11-04 11:33:00,69.0,50.0,29.84,South,181,10.0,16.0,51,0.00,,,0.00,680.000000,,2013-11-04 19:33:00,
2013-11-04 11:42:00,69.0,50.0,29.84,South,181,10.0,16.0,51,0.00,,,0.00,680.000000,,2013-11-04 19:42:00,
2013-11-04 11:52:00,69.0,50.0,29.84,South,181,10.0,16.0,51,0.00,,,0.00,680.000000,,2013-11-04 19:52:00,
2013-11-04 12:22:00,68.0,50.0,29.82,SSW,193,10.0,20.0,52,0.00,,,0.00,689.000000,,2013-11-04 20:22:00,
2013-11-04 12:32:00,68.0,50.0,29.82,SSW,193,10.0,20.0,52,0.00,,,0.00,689.000000,,2013-11-04 20:32:00,
2013-11-04 12:42:00,68.0,50.0,29.82,SSW,193,10.0,20.0,52,0.00,,,0.00,689.000000,,2013-11-04 20:42:00,
2013-11-04 12:52:00,68.0,50.0,29.82,SSW,193,10.0,20.0,52,0.00,,,0.00,689.000000,,2013-11-04 20:52:00,
2013-11-04 13:22:00,70.0,52.0,29.81,South,179,11.0,20.0,52,0.00,,,0.00,675.000000,,2013-11-04 21:22:00,
2013-11-04 13:34:00,70.0,52.0,29.81,South,179,11.0,20.0,52,0.00,,,0.00,675.000000,,2013-11-04 21:34:00,
2013-11-04 13:44:00,70.0,52.0,29.81,South,179,11.0,20.0,52,0.00,,,0.00,675.000000,,2013-11-04 21:44:00,
2013-11-04 13:54:00,70.0,52.0,29.81,South,179,11.0,20.0,52,0.00,,,0.00,675.000000,,2013-11-04 21:54:00,
2013-11-04 14:23:00,71.0,52.0,29.80,South,185,12.0,21.0,52,0.00,,,0.00,592.000000,,2013-11-04 22:23:00,
2013-11-04 14:33:00,71.0,52.0,29.80,South,185,12.0,21.0,52,0.00,,,0.00,592.000000,,2013-11-04 22:33:00,
2013-11-04 14:43:00,71.0,52.0,29.80,South,185,12.0,21.0,52,0.00,,,0.00,592.000000,,2013-11-04 22:43:00,
2013-11-04 14:53:00,71.0,52.0,29.80,South,185,12.0,21.0,52,0.00,,,0.00,592.000000,,2013-11-04 22:53:00,
2013-11-04 15:22:00,70.0,52.0,29.80,South,183,11.0,21.0,53,0.00,,,0.00,443.000000,,2013-11-04 23:22:00,
2013-11-04 15:33:00,70.0,52.0,29.80,South,183,11.0,21.0,53,0.00,,,0.00,443.000000,,2013-11-04 23:33:00,
2013-11-04 15:43:00,70.0,52.0,29.80,South,183,11.0,21.0,53,0.00,,,0.00,443.000000,,2013-11-04 23:43:00,
2013-11-04 15:53:00,70.0,52.0,29.80,South,183,11.0,21.0,53,0.00,,,0.00,443.000000,,2013-11-04 23:53:00,
2013-11-04 16:22:00,66.0,50.0,29.82,South,176,8.0,17.0,57,0.00,,,0.00,135.000000,,2013-11-05 00:22:00,
2013-11-04 16:32:00,66.0,50.0,29.82,South,176,8.0,17.0,57,0.00,,,0.00,135.000000,,2013-11-05 00:32:00,
2013-11-04 16:42:00,66.0,50.0,29.82,South,176,8.0,17.0,57,0.00,,,0.00,135.000000,,2013-11-05 00:42:00,
2013-11-04 16:52:00,66.0,50.0,29.82,South,176,8.0,17.0,57,0.00,,,0.00,135.000000,,2013-11-05 00:52:00,
2013-11-04 17:21:00,61.0,50.0,29.83,South,170,7.0,16.0,66,0.00,,,0.00,47.000000,,2013-11-05 01:21:00,
2013-11-04 17:32:00,61.0,50.0,29.83,South,170,7.0,16.0,66,0.00,,,0.00,47.000000,,2013-11-05 01:32:00,
2013-11-04 17:42:00,61.0,50.0,29.83,South,170,7.0,16.0,66,0.00,,,0.00,47.000000,,2013-11-05 01:42:00,
2013-11-04 17:52:00,61.0,50.0,29.83,South,170,7.0,16.0,66,0.00,,,0.00,47.000000,,2013-11-05 01:52:00,
2013-11-04 18:22:00,59.0,50.0,29.85,North,353,4.0,12.0,72,0.00,,,0.00,0.000000,,2013-11-05 02:22:00,
2013-11-04 18:32:00,59.0,50.0,29.85,North,353,4.0,12.0,72,0.00,,,0.00,0.000000,,2013-11-05 02:32:00,
2013-11-04 18:42:00,59.0,50.0,29.85,North,353,4.0,12.0,72,0.00,,,0.00,0.000000,,2013-11-05 02:42:00,
2013-11-04 18:52:00,59.0,50.0,29.85,North,353,4.0,12.0,72,0.00,,,0.00,0.000000,,2013-11-05 02:52:00,
2013-11-04 19:22:00,56.0,51.0,29.87,NE,39,1.0,7.0,82,0.00,,,0.00,0.000000,,2013-11-05 03:22:00,
2013-11-04 19:33:00,56.0,51.0,29.87,NE,39,1.0,7.0,82,0.00,,,0.00,0.000000,,2013-11-05 03:33:00,
2013-11-04 19:44:00,56.0,51.0,29.87,NE,39,1.0,7.0,82,0.00,,,0.00,0.000000,,2013-11-05 03:44:00,
2013-11-04 19:54:00,56.0,51.0,29.87,NE,39,1.0,7.0,82,0.00,,,0.00,0.000000,,2013-11-05 03:54:00,
2013-11-04 20:23:00,54.0,49.0,29.88,SW,220,1.0,5.0,84,0.00,,,0.00,0.000000,,2013-11-05 04:23:00,
2013-11-04 20:34:00,54.0,49.0,29.88,SW,220,1.0,5.0,84,0.00,,,0.00,0.000000,,2013-11-05 04:34:00,
2013-11-04 20:43:00,54.0,49.0,29.88,SW,220,1.0,5.0,84,0.00,,,0.00,0.000000,,2013-11-05 04:43:00,
2013-11-04 20:53:00,54.0,49.0,29.88,SW,220,1.0,5.0,84,0.00,,,0.00,0.000000,,2013-11-05 04:53:00,
2013-11-04 21:23:00,50.0,47.0,29.91,North,7,3.0,4.0,90,0.00,,,0.00,0.000000,,2013-11-05 05:23:00,
2013-11-04 21:34:00,50.0,47.0,29.91,North,7,3.0,4.0,90,0.00,,,0.00,0.000000,,2013-11-05 05:34:00,
2013-11-04 21:43:00,50.0,47.0,29.91,North,7,3.0,4.0,90,0.00,,,0.00,0.000000,,2013-11-05 05:43:00,
2013-11-04 21:53:00,50.0,47.0,29.91,North,7,3.0,4.0,90,0.00,,,0.00,0.000000,,2013-11-05 05:53:00,
2013-11-04 23:22:00,46.0,44.0,29.92,NNW,338,1.0,3.0,94,-99.99,,,0.00,0.000000,,2013-11-05 07:22:00,
2013-11-04 23:32:00,46.0,44.0,29.92,NNW,338,1.0,3.0,94,-99.99,,,0.00,0.000000,,2013-11-05 07:32:00,
2013-11-04 23:42:00,46.0,44.0,29.92,NNW,338,1.0,3.0,94,-99.99,,,0.00,0.000000,,2013-11-05 07:42:00,
2013-11-04 23:52:00,46.0,44.0,29.92,NNW,338,1.0,3.0,94,-99.99,,,0.00,0.000000,,2013-11-05 07:52:00,